Lid_Strength_Index
3 3 3 3 4 5 5 6 9 4 3 9 10 11 9 7 8 7 8 9 10 11 11 12 12 11 9 8 9 11 11 14 14 13 11 9 10 11 13 15 15 14 15 14
3 3 3 3 3 4 5 8 8 4 5 11 11 9 8 7 8 8 9 9 9 10 12 13 11 9 6 7 9 11 11 15 16 14 13 12 13 12 13 13 14 15 15 14
3 3 3 3 3 4 6 7 10 7 7 8 10 10 9 9 6 7 7 8 9 10 11 12 11 10 7 6 7 5 8 14 14 15 13 13 13 11 11 13 15 14 13 13
3 3 3 4 4 4 6 7 9 7 11 9 9 9 9 9 9 7 8 9 9 10 13 12 11 10 8 7 6 8 12 13 14 13 11 12 12 11 11 13 13 13 12 12
3 3 3 4 3 5 6 8 8 7 8 8 9 10 10 9 8 8 8 9 7 9 12 12 11 10 10 10 7 9 10 13 14 13 11 11 12 11 11 11 10 12 10 11
4 3 3 3 3 5 6 4 5 6 9 9 10 10 9 8 7 7 6 7 8 9 8 7 7 7 9 9 10 10 11 12 13 14 11 11 13 12 10 11 10 10 12 9
4 4 4 3 3 4 6 5 5 8 11 9 9 8 7 8 8 8 6 6 8 6 6 6 7 7 8 8 9 9 11 12 13 14 14 16 12 8 9 10 10 9 10 9
4 4 3 3 3 3 6 5 5 7 10 8 8 8 8 7 7 7 7 6 6 6 8 10 11 10 9 9 8 9 9 12 13 15 15 12 12 10 10 12 11 8 9 8
4 4 4 3 3 3 6 5 2 4 9 10 6 8 7 9 9 8 7 4 4 6 10 10 13 14 12 12 11 8 9 10 11 13 16 16 13 8 6 8 14 8 8 8
4 4 4 3 3 3 6 6 4 5 8 6 7 9 9 7 8 10 8 7 7 6 10 12 12 13 11 15 15 14 13 12 15 15 16 13 10 7 7 15 14 8 7 8
5 4 4 4 3 3 5 5 2 3 6 6 4 4 7 7 8 10 8 8 8 9 11 12 13 14 13 14 13 14 14 14 15 15 17 17 7 8 11 9 7 7 7 7
5 5 5 4 4 3 3 7 2 2 4 5 3 3 3 3 4 7 7 8 8 8 10 10 11 13 12 13 15 11 15 12 13 12 13 8 7 7 6 6 7 6 7 6
5 5 5 4 4 3 3 5 4 4 6 5 6 6 4 3 3 3 7 7 5 7 5 8 10 13 11 14 13 13 11 9 12 12 9 8 7 6 6 5 6 5 5 5
6 5 5 4 4 4 3 4 4 4 4 8 8 3 4 3 4 4 3 4 5 7 7 9 10 11 9 12 11 11 10 9 11 11 8 7 7 6 5 5 4 4 4 4
5 5 5 4 4 4 3 3 3 3 5 9 7 5 4 4 5 5 5 5 5 8 9 9 10 8 9 9 10 11 8 10 11 12 8 8 7 6 5 5 5 4 4 4
5 5 5 5 4 4 4 6 4 4 3 6 10 7 6 5 5 6 6 5 6 7 8 8 8 7 8 12 13 8 7 7 7 8 6 6 5 5 4 5 5 5 4 4
5 5 4 5 5 4 5 6 4 4 3 6 9 9 6 4 5 6 6 6 6 6 7 8 8 7 8 10 11 8 6 6 5 5 6 6 5 6 4 4 4 4 4 4
5 5 4 5 5 5 5 4 3 3 4 5 10 10 9 5 7 8 6 8 8 8 7 7 8 8 8 11 9 7 6 5 6 5 5 5 4 4 4 4 4 5 5 4
5 4 3 4 5 7 5 2 2 3 5 8 8 11 12 7 8 7 7 7 9 7 8 8 8 9 11 9 8 7 6 6 6 5 5 5 6 5 5 5 4 5 5 5
4 4 5 7 5 3 3 5 6 6 6 6 9 8 10 8 9 8 8 7 9 11 9 7 9 9 7 6 6 6 6 6 6 6 7 6 6 6 6 6 5 5 5 5
5 6 6 4 3 5 7 8 8 8 10 8 8 7 9 7 10 9 7 10 10 13 10 10 11 12 7 5 6 5 5 4 4 5 5 5 5 5 5 5 5 5 5 5
5 4 3 4 6 8 10 10 9 9 11 9 10 8 8 8 7 9 8 10 10 13 8 11 13 9 7 6 5 5 5 4 4 4 4 4 4 4 4 4 4 4 4 4
4 6 6 7 8 12 12 13 12 11 9 8 7 8 7 8 7 8 9 11 12 8 12 12 10 8 6 6 6 5 5 4 4 4 4 4 4 4 4 4 4 4 4 4
7 8 13 10 11 10 11 11 10 8 8 7 7 8 8 8 9 9 12 10 9 13 14 12 10 8 7 6 5 5 5 5 4 4 4 4 4 4 4 4 4 5 7 7
8 7 12 10 8 8 9 8 8 7 7 6 7 8 8 9 10 10 10 12 13 12 13 11 8 7 7 6 6 5 5 5 5 5 5 5 5 5 4 4 4 3 4 4
7 8 9 8 10 9 9 9 9 6 6 6 7 10 10 11 10 12 13 13 14 12 9 8 7 7 6 6 6 6 5 5 5 4 4 5 5 5 5 4 4 3 4 4
10 10 8 8 9 9 9 7 6 5 7 9 9 11 12 10 12 12 10 12 10 8 7 6 7 7 6 5 5 5 5 6 4 5 5 5 4 5 5 5 5 4 3 4